Weather reports worldwide

Advertisment
Baltasound, United Kingdom (3002): temperature & dewpoint: 16.04.2018 15:00:00 - 22.04.2018 15:00:00 (BST)Baltasound, United Kingdom (3002): temperature -20cm: 16.04.2018 15:00:00 - 22.04.2018 15:00:00 (BST)Baltasound, United Kingdom (3002): wind speed & gusts: 16.04.2018 15:00:00 - 22.04.2018 15:00:00 (BST)Baltasound, United Kingdom (3002): wind direction: 16.04.2018 15:00:00 - 22.04.2018 15:00:00 (BST)Baltasound, United Kingdom (3002): reduced air pressure: 16.04.2018 15:00:00 - 22.04.2018 15:00:00 (BST)Baltasound, United Kingdom (3002): visibility: 16.04.2018 15:00:00 - 22.04.2018 15:00:00 (BST)Baltasound, United Kingdom (3002): precipitation: 16.04.2018 15:00:00 - 22.04.2018 15:00:00 (BST)
Date & Time tt [°C] td [°C] tt -20cm [°C] ff [km/h] ff [kn] fx [km/h] fx [kn] dd ppp [hPa] vv [km] rr [mm]
22.04.2018 15:00:00 7,7 7,3 - 34 18 48 26 SSE 998,6 4,9 0,0
22.04.2018 14:00:00 7,5 7,2 - 34 18 48 26 SSE 999,9 4,4 0,0
22.04.2018 13:00:00 7,9 7,3 - 41 22 57 31 SSE 1000,2 6 0,0
22.04.2018 12:00:00 7,8 7,3 - 34 18 46 25 SSE 1001,2 5 0,0
22.04.2018 11:00:00 7,4 6,9 - 29 16 50 27 SSE 1002,4 6 0,6
22.04.2018 10:00:00 7,4 6,4 8,0 42 23 63 34 SE 1003,4 9 0,6
22.04.2018 09:00:00 7,5 6,0 - 31 17 48 26 SE 1004,5 8 0,0
22.04.2018 08:00:00 7,5 6,1 - 35 19 52 28 SE 1005,2 12 0,0
22.04.2018 07:00:00 7,3 6,0 - 34 18 46 25 SE 1006,2 13 0,0
22.04.2018 06:00:00 7,2 6,2 - 29 16 - - SE 1007,2 11 0,0
22.04.2018 05:00:00 7,2 6,3 - 28 15 - - SSE 1008,2 10 0,0
22.04.2018 04:00:00 7,3 6,6 - 26 14 - - SSE 1009,5 10 0,0
22.04.2018 03:00:00 7,2 6,6 - 28 15 - - SSE 1010,6 11 0,0
22.04.2018 02:00:00 7,2 6,5 - 28 15 - - SSE 1011,7 13 0,0
22.04.2018 01:00:00 7,0 6,5 - 31 17 - - SSE 1012,4 12 0,0
22.04.2018 00:00:00 6,8 6,3 - 26 14 - - SSE 1013,3 13 0,0
21.04.2018 23:00:00 7,1 6,6 - 29 16 - - SSE 1013,9 14 0,0
21.04.2018 22:00:00 7,1 6,6 - 28 15 - - SE 1014,5 13 0,2
21.04.2018 21:00:00 7,3 6,2 - 24 13 - - SSE 1015,4 14 0,0
21.04.2018 20:00:00 7,5 6,1 - 18 10 - - S 1015,9 20 0,0
21.04.2018 19:00:00 8,1 5,9 - 22 12 - - S 1016,4 22 0,0
21.04.2018 18:00:00 8,6 5,4 - 26 14 - - S 1016,6 29 0,0
21.04.2018 17:00:00 9,3 5,3 - 24 13 - - S 1017,1 23 0,0
21.04.2018 16:00:00 10,7 5,4 - 22 12 - - SSW 1017,3 30 0,0
21.04.2018 15:00:00 11,4 4,9 - 22 12 - - WSW 1017,7 24 0,0
21.04.2018 14:00:00 10,9 6,9 - 21 11 - - W 1018,1 17 0,0
21.04.2018 13:00:00 9,9 6,5 - 18 10 - - W 1018,4 22 0,0
21.04.2018 12:00:00 11,0 3,8 - 15 8 - - W 1018,5 40 0,0
21.04.2018 11:00:00 10,2 4,3 - 13 7 - - W 1018,6 45 0,0
21.04.2018 10:00:00 9,6 5,8 7,9 21 11 - - W 1018,6 22 0,0
21.04.2018 09:00:00 8,8 6,9 - 21 11 - - WSW 1018,4 24 0,0
21.04.2018 08:00:00 8,4 7,0 - 13 7 - - W 1018,0 35 0,0
21.04.2018 07:00:00 7,6 6,3 - 16 9 - - W 1018,1 10 0,0
21.04.2018 06:00:00 6,8 5,7 - 21 11 - - W 1017,6 19 0,0
21.04.2018 05:00:00 7,3 6,2 - 22 12 - - W 1017,5 18 0,0
21.04.2018 04:00:00 7,2 5,9 - 22 12 - - W 1017,5 19 0,0
21.04.2018 03:00:00 7,5 5,9 - 24 13 - - W 1017,1 19 0,0
21.04.2018 02:00:00 7,0 6,1 - 22 12 - - W 1017,0 15 0,0
21.04.2018 01:00:00 7,0 6,2 - 24 13 - - WSW 1017,0 16 0,0
21.04.2018 00:00:00 7,2 6,4 - 24 13 - - WSW 1016,7 13 0,0
20.04.2018 23:00:00 7,1 6,5 - 24 13 - - W 1016,2 11 0,0
20.04.2018 22:00:00 7,3 6,6 - 24 13 - - W 1016,0 14 0,0
20.04.2018 21:00:00 7,8 7,1 - 31 17 - - W 1015,7 11 0,0
20.04.2018 20:00:00 8,5 7,5 - 34 18 48 26 W 1015,1 10 0,0
20.04.2018 19:00:00 9,1 7,3 - 35 19 48 26 WSW 1015,1 12 0,0
20.04.2018 18:00:00 10,1 7,6 - 34 18 52 28 WSW 1015,2 14 0,0
20.04.2018 17:00:00 10,6 7,5 - 39 21 50 27 WSW 1015,1 22 0,0
20.04.2018 16:00:00 9,7 6,9 - 39 21 54 29 W 1015,1 27 0,0
20.04.2018 15:00:00 9,6 6,6 - 41 22 54 29 WSW 1015,3 21 0,0
20.04.2018 14:00:00 10,2 7,1 - 39 21 55 30 WSW 1015,4 18 0,0
20.04.2018 13:00:00 11,0 7,3 - 44 24 57 31 WSW 1015,4 15 0,0
20.04.2018 12:00:00 10,4 7,2 - 44 24 55 30 W 1015,7 12 0,0
20.04.2018 11:00:00 11,2 6,8 - 37 20 52 28 WSW 1015,9 17 0,0
20.04.2018 10:00:00 11,2 6,6 7,9 34 18 - - SW 1015,8 15 0,0
20.04.2018 09:00:00 9,6 6,3 - 34 18 48 26 WSW - - 0,0
20.04.2018 08:00:00 9,0 6,3 - 37 20 46 25 WSW - - 0,0
20.04.2018 07:00:00 7,8 6,7 - 29 16 - - WSW 1017,0 13 0,0
20.04.2018 06:00:00 7,8 6,9 - 26 14 - - SW 1017,1 14 0,0
20.04.2018 05:00:00 8,5 6,8 - 28 15 - - WSW 1017,7 18 0,0
20.04.2018 04:00:00 7,9 6,4 - 26 14 - - SW 1018,3 18 0,0
20.04.2018 03:00:00 8,3 6,8 - 26 14 - - SW 1018,5 21 0,0
20.04.2018 02:00:00 8,3 6,8 - 26 14 - - SW 1018,9 28 0,0
20.04.2018 01:00:00 8,6 7,2 - 28 15 - - SW 1019,4 21 0,0
20.04.2018 00:00:00 8,6 7,1 - 26 14 - - SW 1019,6 26 0,0
19.04.2018 23:00:00 8,6 7,3 - 21 11 - - SSW 1019,6 21 0,0
19.04.2018 22:00:00 9,0 7,6 - 24 13 - - S 1019,8 20 0,0
19.04.2018 21:00:00 9,4 8,1 - 18 10 - - S 1019,8 16 0,0
19.04.2018 20:00:00 10,4 7,8 - 13 7 - - S 1019,6 19 0,0
19.04.2018 19:00:00 10,9 7,6 - 11 6 - - S 1019,8 17 0,0
19.04.2018 18:00:00 12,1 8,6 - 15 8 - - WSW 1020,0 19 0,0
19.04.2018 17:00:00 13,6 9,2 - 22 12 - - SW 1019,6 29 0,0
19.04.2018 16:00:00 13,5 9,3 - 13 7 - - W 1019,4 27 0,0
19.04.2018 15:00:00 13,6 8,9 - 26 14 - - WSW 1019,5 30 0,0
19.04.2018 14:00:00 13,4 9,1 - 24 13 - - W 1019,5 26 0,0
19.04.2018 13:00:00 12,8 9,0 - 21 11 - - SW 1019,4 35 0,0
19.04.2018 12:00:00 13,4 8,9 - 22 12 - - SW 1019,0 30 0,0
19.04.2018 11:00:00 13,0 9,1 - 28 15 - - SW 1018,6 25 0,0
19.04.2018 10:00:00 13,0 9,5 7,4 26 14 - - SW 1018,1 25 0,0
19.04.2018 09:00:00 12,2 9,3 - 21 11 - - S 1017,6 13 -
19.04.2018 08:00:00 11,2 9,4 - 22 12 - - SSW 1017,4 11 -
19.04.2018 07:00:00 10,0 8,6 - 28 15 48 26 SSW 1017,1 9 -
19.04.2018 06:00:00 9,4 8,2 - 35 19 54 29 SSW 1016,7 8 -
19.04.2018 05:00:00 9,3 8,2 - 35 19 46 25 S 1016,5 9 -
19.04.2018 04:00:00 9,2 8,0 - 29 16 - - S 1017,3 11 -
19.04.2018 03:00:00 8,4 7,8 - 24 13 - - SSE 1018,0 9 -
19.04.2018 02:00:00 8,3 7,7 - 26 14 - - S 1018,8 9 0,0
19.04.2018 01:00:00 7,9 7,5 - 34 18 - - SSE 1019,3 9 0,0
19.04.2018 00:00:00 7,5 7,4 - 21 11 - - SSE 1019,9 7 0,0
18.04.2018 23:00:00 7,1 7,1 - 18 10 - - SE 1020,3 0,6 0,0
18.04.2018 22:00:00 7,6 7,3 - 22 12 - - SSE 1021,0 2,2 0,0
18.04.2018 21:00:00 7,7 6,9 - 26 14 - - S 1021,3 10 0,0
18.04.2018 20:00:00 8,6 7,2 - 22 12 - - S 1021,2 11 0,0
18.04.2018 19:00:00 9,0 7,5 - 24 13 - - S 1021,1 9 0,0
18.04.2018 18:00:00 11,0 8,2 - 16 9 - - S 1020,9 9 0,0
18.04.2018 17:00:00 11,8 8,4 - 21 11 - - S 1020,8 9 0,0
18.04.2018 16:00:00 11,9 8,6 - 24 13 - - S 1020,7 9 0,0
18.04.2018 15:00:00 13,2 9,1 - 18 10 - - S 1020,2 10 0,0
18.04.2018 14:00:00 14,0 9,5 - 24 13 - - S 1019,8 11 0,0
18.04.2018 13:00:00 13,5 9,4 - 24 13 - - SSW 1019,1 11 0,0
18.04.2018 12:00:00 13,0 10,1 - 22 12 - - S 1018,6 9 0,0
18.04.2018 11:00:00 10,7 8,6 - 18 10 - - SSE 1017,9 10 0,0
18.04.2018 10:00:00 11,7 9,3 6,7 9 5 - - S 1016,9 11 0,0
18.04.2018 09:00:00 9,7 7,6 - 5 3 - - ESE 1016,9 13 0,0
18.04.2018 08:00:00 10,2 8,6 - 5 3 - - SSE 1016,4 14 0,0
18.04.2018 07:00:00 7,0 6,2 - 0 0 - - N 1015,3 15 0,0
18.04.2018 06:00:00 5,9 4,8 - 2 1 - - N 1014,6 16 0,0
18.04.2018 05:00:00 8,2 6,7 - 2 1 - - WNW 1014,4 13 0,0
18.04.2018 04:00:00 7,4 5,5 - 2 1 - - E 1013,5 10 0,0
18.04.2018 03:00:00 7,9 6,5 - 16 9 - - SSW 1012,9 10 0,0
18.04.2018 02:00:00 8,1 7,2 - 15 8 - - SW 1012,3 12 0,0
18.04.2018 01:00:00 6,2 4,9 - 4 2 - - NW 1011,2 4,8 0,0
18.04.2018 00:00:00 7,3 6,4 - 0 0 - - N 1010,4 7 0,0
17.04.2018 23:00:00 6,3 5,4 - 2 1 - - NNE 1009,5 6 0,0
17.04.2018 22:00:00 7,2 6,6 - 24 13 - - S 1008,3 6 0,0
17.04.2018 21:00:00 7,4 6,7 - 24 13 - - S 1007,6 6 0,0
17.04.2018 20:00:00 7,6 6,7 - 24 13 - - S 1007,0 6 0,0
17.04.2018 19:00:00 8,3 7,2 - 29 16 - - S 1006,4 6 0,0
17.04.2018 18:00:00 8,4 7,3 - 31 17 50 27 S 1006,0 6 0,0
17.04.2018 17:00:00 8,5 7,5 - 39 21 59 32 S 1005,6 6 0,0
17.04.2018 16:00:00 7,7 7,0 - 35 19 46 25 SSE 1005,7 6 0,2
17.04.2018 15:00:00 7,5 6,9 - 35 19 54 29 SSE 1005,8 5 0,0
17.04.2018 14:00:00 7,3 6,8 - 35 19 57 31 SSE 1006,1 5 0,6
17.04.2018 13:00:00 7,2 6,6 - 41 22 61 33 SSE 1006,1 4,2 0,6
17.04.2018 12:00:00 7,3 6,6 - 44 24 59 32 SSE 1006,6 6 0,8
17.04.2018 11:00:00 7,6 6,6 - 41 22 57 31 SSE 1007,3 5 0,6
17.04.2018 10:00:00 7,8 6,3 6,7 41 22 54 29 SE 1007,2 6 0,2
17.04.2018 09:00:00 8,0 6,3 - 34 18 50 27 SE 1007,7 8 0,0
17.04.2018 08:00:00 8,1 5,9 - 31 17 52 28 SE 1007,9 10 0,0
17.04.2018 07:00:00 8,3 5,8 - 34 18 52 28 SE 1007,9 11 0,0
17.04.2018 06:00:00 7,5 5,5 - 31 17 - - SSE 1008,1 11 0,0
17.04.2018 05:00:00 7,1 5,4 - 29 16 - - SSE 1008,6 11 0,0
17.04.2018 04:00:00 6,9 5,8 - 28 15 - - SSE 1008,7 10 0,0
17.04.2018 03:00:00 6,4 6,1 - 26 14 - - SE 1009,1 8 0,0
17.04.2018 02:00:00 6,2 6,2 - 26 14 - - SSE 1009,6 4,6 0,0
17.04.2018 01:00:00 6,2 6,2 - 31 17 - - SSE 1009,3 2,0 0,0
17.04.2018 00:00:00 6,3 6,3 - 31 17 - - SSE 1009,5 0,8 0,0
16.04.2018 23:00:00 6,4 6,4 - 29 16 - - SSE 1009,1 1,2 0,0
16.04.2018 22:00:00 6,4 6,4 - 34 18 - - SSE 1009,0 1,5 0,0
16.04.2018 21:00:00 6,7 6,7 - 28 15 - - SE 1008,9 1,0 0,0
16.04.2018 20:00:00 6,7 6,6 - 28 15 - - SE 1009,0 2,0 0,0
16.04.2018 19:00:00 6,9 6,5 - 28 15 - - SE 1008,4 3,0 0,0
16.04.2018 18:00:00 7,2 6,6 - 29 16 - - SE 1008,6 8 0,0
16.04.2018 17:00:00 7,3 6,4 - 29 16 - - SE 1008,8 8 0,0
16.04.2018 16:00:00 7,8 6,6 - 26 14 - - SE 1008,7 12 0,0
16.04.2018 15:00:00 8,1 6,1 - 24 13 - - SE 1009,1 14 0,0

tt = temperature
td = dewpoint
tt -20cm = temperature -20cm
ff = wind speed
fx = gusts
dd = wind direction
ppp = reduced air pressure
vv = visibility
rr = precipitation

Next stations